Location: Horowhenua
(40.7500°S, 175.3333°E)
Time: 05:53:04
(UTC+00:00)

OAO 2 Rocket - Pass Details

Date: 28 January 2023
Orbit: 675 x 743 km, 35.0° (Epoch: 01 April)

Event Time Altitude Azimuth Distance (km) Brightness Sun altitude
Exits shadow 16:20:21 13° 287° (WNW) 1,945 5.0 -10.8°
Maximum altitude 16:24:29 42° 354° (N) 982 3.8 -10.1°
Drops below altitude 10° 16:29:08 10° 64° (ENE) 2,119 6.2 -9.4°
Sets 16:31:37 0° 70° (ENE) 3,029 7.2 -9.0°
